DELTA 1 DEB, 40754

Orbit data source: Space-Track

DELTA 1 DEB, 40754 is space debris in SSO originally from a launch on Thu, 29 Jul 1976 UTC launched from the Air Force Western Test Range (AFWTR). Debris objects in space refer to the collection of defunct objects orbiting the Earth. Examples of debris include non-operational satellites, rocket bodies, and fragments generated from explosions, collisions, or faulty payload assembly.

Loading next visibility...
Identifier
40754, 1976-077FX
Orbit
SSO
Country
Flag of USUS
Related business
Manufacturer
Unknown
Mission
Spacecraft
Bus & Motor
Unknown
Mass
Unknown
Launch date (UTC)
1976-07-29 (50 years ago)
Launch vehicle
Unknown
Launch site
Air Force Western Test Range (AFWTR)
Object type
Payload
Rocket body
Debris
Shape & HBR
Unknown shape, 0.1 m
Radar Cross Section
Medium (>0.1 m² and <1 m²)

Expand to show TLE details & history
Last TLE update: 10 hours ago

TLE from 10 hours ago
0 DELTA 1 DEB
1 40754U 76077FX  26171.20077870 -.00000034  00000-0  99205-4 0  9992
2 40754 102.5358 138.0430 0093905 108.6256 252.5021 12.25156099  3852
Epoch: 2026-06-20T04:49Z
TLE epoch observation values (Epoch: 2026-06-20T04:49:07.279Z)
Latitude
-0.00005°
Longitude
157.34387°
Altitude
1,595.75 km
Speed
7.061 km/s
True Right ascension
09h 12m 10s
True Declination
0° 00' 00"
Sunlit
Object was in daylight at epoch
Visualization orbit readout
Latitude
Unknown
Longitude
Unknown
Altitude
Unknown
Speed
Unknown
Apparent Right ascension
Unknown
Apparent Declination
Unknown
Sunlit
N/A
Visualization observer readout
Local Sidereal Time
01:21:02
Azimuth
Unknown
Elevation
Unknown
Doppler factor
Unknown
Orbital elements
Apogee altitude
1,642.405 km
Perigee altitude
1,493.172 km
Semi-major axis
7,945.926 km
Eccentricity
0.00939
Inclination
102.5358°
RAAN
138.043°
Arg. of periapsis
108.6256°
True anomaly
251.47948°
Mean anomaly
252.5021°
Eccentric anomaly
251.99043°
Mean motion
3.06427 °/min
Orbital period
117.48 mins
BSTAR
0.000099205
Loading maneuver chart data...
Computing Atmospheric mass density...
Loading historical data...
Loading historical data...
Loading historical data...
Loading historical data...
Loading historical data...
Loading historical data...
Loading historical data...

Documentation

Showing up to 5 results
|